Location: Ravensburg
(47.7866°N, 9.6124°E)
Time: 07:49:36
(UTC+02:00)

STARS - Pass Details

Date: 22 March 2026
Orbit: 575 x 588 km, 98.2° (Epoch: 15 April)

Event Time Altitude Azimuth Distance (km) Brightness Sun altitude
Rises 03:54:06 0° 358° (N) 2,800 ? -24.3°
Reaches altitude 10° 03:57:01 10° 335° (NNW) 1,896 ? -23.9°
Enters shadow 03:57:33 12° 329° (NNW) 1,779 ? -23.8°
